Volver al catálogo

FENGYUN 1C DEB

ActivoPO
NORAD 30628·DEBRIS·🇨🇳 China

Lanzado May 10, 1999 desde Taiyuan Satellite Launch Center

Loading…

Próximos Pases (próximas 24 horas)

TLE

ActualizadoSource: Space-Track

Época: Sep 14, 2026, 07:46 UTC

1 30628U 99025ANK 26257.32391438  .00010555  00000-0  14929-2 0  9992
2 30628  99.3465 219.4796 0021894 110.1190 250.2374 14.77176146 25231

Sigue FENGYUN 1C DEB en tiempo real con AllMySat

Download on the App Store